| time (UTC) | temp F | wind direction | speed knots | gust knots | rain 1hr in | rain 24hr in | rain mn in | humidity % | barometer mb |
| 20260504081004 | 49 | 158 | 2.6 | 4.3 | 0.00 | 0.00 | 0.00 | 73 | 1005.3 |
| 20260504050003 | 54 | 29 | 1.7 | 4.3 | 0.00 | 0.00 | 0.00 | 73 | 1006.8 |
| 20260504044003 | 56 | 23 | 3.5 | 7.8 | 0.00 | 0.00 | 0.00 | 66 | 1006.6 |
| 20260504043003 | 57 | 26 | 4.3 | 7.0 | 0.00 | 0.00 | 0.00 | 60 | 1006.7 |
| 20260504042003 | 57 | 36 | 3.5 | 10.4 | 0.00 | 0.00 | 0.00 | 54 | 1006.7 |
| 20260504040003 | 58 | 150 | 1.7 | 2.6 | 0.00 | 0.00 | 0.00 | 52 | 1006.3 |
| 20260504034003 | 59 | 218 | 0.9 | 2.6 | 0.00 | 0.00 | 0.00 | 50 | 1006.4 |
| 20260504033003 | 59 | 156 | 0.9 | 4.3 | 0.00 | 0.00 | 0.00 | 50 | 1006.4 |
| 20260504032003 | 60 | 242 | 0.9 | 5.2 | 0.00 | 0.00 | 0.00 | 49 | 1006.2 |
| 20260504031003 | 60 | 159 | 0.9 | 4.3 | 0.00 | 0.00 | 0.00 | 49 | 1006.5 |
| 20260504025003 | 61 | 195 | 0.9 | 4.3 | 0.00 | 0.00 | 0.00 | 49 | 1006.4 |
| 20260504024003 | 61 | 179 | 1.7 | 5.2 | 0.00 | 0.00 | 0.00 | 48 | 1006.4 |
| 20260504023003 | 62 | 186 | 1.7 | 5.2 | 0.00 | 0.00 | 0.00 | 48 | 1006.3 |
| 20260504021003 | 62 | 176 | 0.9 | 2.6 | 0.00 | 0.00 | 0.00 | 48 | 1006.3 |
| 20260504020003 | 62 | 186 | 0.9 | 5.2 | 0.00 | 0.00 | 0.00 | 48 | 1006.3 |
| 20260504015003 | 63 | 130 | 0.9 | 1.7 | 0.00 | 0.00 | 0.00 | 48 | 1006.3 |
| 20260504014003 | 64 | 161 | 0.9 | 5.2 | 0.00 | 0.00 | 0.00 | 46 | 1006.1 |
| 20260504013003 | 65 | 180 | 0.9 | 4.3 | 0.00 | 0.00 | 0.00 | 44 | 1006.1 |
| 20260504012003 | 65 | 237 | 1.7 | 4.3 | 0.00 | 0.00 | 0.00 | 43 | 1006.1 |
| 20260504011003 | 66 | 250 | 1.7 | 7.0 | 0.00 | 0.00 | 0.00 | 41 | 1005.9 |
| 20260504010003 | 67 | 263 | 4.3 | 8.7 | 0.00 | 0.00 | 0.00 | 40 | 1005.9 |
| 20260504005004 | 67 | 277 | 3.5 | 11.3 | 0.00 | 0.00 | 0.00 | 39 | 1005.8 |
| 20260504003004 | 69 | 283 | 5.2 | 12.2 | 0.00 | 0.00 | 0.00 | 37 | 1005.9 |
| 20260504002003 | 69 | 266 | 6.1 | 13.9 | 0.00 | 0.00 | 0.00 | 36 | 1005.7 |
| 20260504001003 | 70 | 287 | 4.3 | 8.7 | 0.00 | 0.00 | 0.00 | 37 | 1005.7 |
| 20260504000004 | 70 | 236 | 4.3 | 10.4 | 0.00 | 0.00 | 0.00 | 37 | 1005.5 |
| 20260503235003 | 70 | 219 | 6.1 | 11.3 | 0.00 | 0.00 | 0.00 | 38 | 1005.6 |
| 20260503234003 | 68 | 207 | 4.3 | 11.3 | 0.00 | 0.00 | 0.00 | 46 | 1005.6 |
| 20260503233003 | 68 | 194 | 6.1 | 13.9 | 0.00 | 0.00 | 0.00 | 45 | 1005.5 |
| 20260503232003 | 68 | 195 | 4.3 | 20.9 | 0.00 | 0.00 | 0.00 | 45 | 1005.7 |
| 20260503231004 | 69 | 205 | 7.8 | 13.9 | 0.00 | 0.00 | 0.00 | 44 | 1005.5 |
| 20260503230003 | 68 | 187 | 8.7 | 15.6 | 0.00 | 0.00 | 0.00 | 43 | 1005.8 |
| 20260503225003 | 68 | 206 | 8.7 | 15.6 | 0.00 | 0.00 | 0.00 | 43 | 1005.7 |
| 20260503224004 | 68 | 212 | 8.7 | 13.9 | 0.00 | 0.00 | 0.00 | 43 | 1006.0 |
| 20260503223003 | 69 | 197 | 8.7 | 15.6 | 0.00 | 0.00 | 0.00 | 43 | 1005.7 |
| 20260503222004 | 69 | 202 | 9.6 | 14.8 | 0.00 | 0.00 | 0.00 | 43 | 1005.9 |
| 20260503221004 | 70 | 198 | 6.1 | 17.4 | 0.00 | 0.00 | 0.00 | 42 | 1005.7 |
| 20260503220003 | 69 | 205 | 8.7 | 15.6 | 0.00 | 0.00 | 0.00 | 41 | 1006.0 |
| 20260503215003 | 69 | 206 | 7.0 | 13.0 | 0.00 | 0.00 | 0.00 | 43 | 1006.1 |
| 20260503214003 | 68 | 200 | 7.8 | 15.6 | 0.00 | 0.00 | 0.00 | 44 | 1006.3 |
| 20260503213004 | 68 | 188 | 7.8 | 14.8 | 0.00 | 0.00 | 0.00 | 44 | 1006.6 |
| 20260503212004 | 69 | 186 | 10.4 | 14.8 | 0.00 | 0.00 | 0.00 | 43 | 1006.5 |
| 20260503211003 | 68 | 199 | 11.3 | 17.4 | 0.00 | 0.00 | 0.00 | 43 | 1006.6 |
| 20260503210004 | 69 | 195 | 7.8 | 14.8 | 0.00 | 0.00 | 0.00 | 43 | 1006.7 |
| 20260503205003 | 68 | 220 | 10.4 | 19.1 | 0.00 | 0.00 | 0.00 | 43 | 1006.8 |
| 20260503204004 | 68 | 217 | 8.7 | 15.6 | 0.00 | 0.00 | 0.00 | 43 | 1007.1 |
| 20260503203003 | 68 | 203 | 7.0 | 20.9 | 0.00 | 0.00 | 0.00 | 44 | 1007.3 |
| 20260503202003 | 68 | 220 | 11.3 | 18.2 | 0.00 | 0.00 | 0.00 | 44 | 1007.4 |
| 20260503201003 | 67 | 178 | 8.7 | 15.6 | 0.00 | 0.00 | 0.00 | 44 | 1007.4 |
| 20260503200002 | 67 | 196 | 7.8 | 19.1 | 0.00 | 0.00 | 0.00 | 45 | 1008.0 |
| 20260503195003 | 67 | 201 | 9.6 | 18.2 | 0.00 | 0.00 | 0.00 | 45 | 1007.9 |
| 20260503193003 | 66 | 194 | 13.9 | 22.6 | 0.00 | 0.00 | 0.00 | 46 | 1008.4 |
| 20260503192004 | 67 | 203 | 9.6 | 20.9 | 0.00 | 0.00 | 0.00 | 46 | 1008.4 |
| 20260503191003 | 67 | 198 | 10.4 | 19.1 | 0.00 | 0.00 | 0.00 | 46 | 1008.7 |
| 20260503190003 | 66 | 204 | 8.7 | 25.2 | 0.00 | 0.00 | 0.00 | 48 | 1008.7 |
| 20260503185004 | 65 | 212 | 11.3 | 20.0 | 0.00 | 0.00 | 0.00 | 48 | 1008.8 |
| 20260503184003 | 65 | 211 | 10.4 | 20.9 | 0.00 | 0.00 | 0.00 | 49 | 1009.1 |
| 20260503183003 | 64 | 216 | 11.3 | 22.6 | 0.00 | 0.00 | 0.00 | 52 | 1009.3 |
| 20260503181003 | 63 | 209 | 12.2 | 25.2 | 0.00 | 0.00 | 0.00 | 55 | 1009.6 |
| 20260503180004 | 63 | 189 | 7.8 | 17.4 | 0.00 | 0.00 | 0.00 | 55 | 1009.7 |
| 20260503174003 | 63 | 195 | 11.3 | 21.7 | 0.00 | 0.00 | 0.00 | 55 | 1010.0 |
| 20260503173003 | 62 | 203 | 10.4 | 22.6 | 0.00 | 0.00 | 0.00 | 54 | 1010.4 |
| 20260503172003 | 62 | 214 | 8.7 | 21.7 | 0.00 | 0.00 | 0.00 | 54 | 1010.3 |
| 20260503171004 | 62 | 207 | 11.3 | 21.7 | 0.00 | 0.00 | 0.00 | 54 | 1010.6 |